This is the latest recevied weather packets stored in our database for station/object AB4KN. If no packets are shown the sender has not sent any weather packets the latest 10 day(s).
| Time | Temp. | Humidity | Pressure | Rain* | Wind** | Luminosity | Snow |
|---|---|---|---|---|---|---|---|
| 1778081480 | 22.78° C | 74% | 1021.8 hPa | 0 mm | - | 569 W/m² | - |
| 1778081177 | 22.78° C | 74% | 1021.5 hPa | 0 mm | - | 89 W/m² | - |
| 1778080875 | 22.22° C | 74% | 1021.5 hPa | 0 mm | - | 158 W/m² | - |
| 1778080573 | 21.67° C | 75% | 1021.6 hPa | 0 mm | - | 114 W/m² | - |
| 1778080270 | 22.22° C | 75% | 1021.7 hPa | 0 mm | - | 89 W/m² | - |
| 1778079966 | 22.22° C | 75% | 1021.4 hPa | 0 mm | - | 110 W/m² | - |
| 1778079663 | 21.67° C | 75% | 1021.5 hPa | 0 mm | - | 100 W/m² | - |
| 1778079360 | 21.67° C | 75% | 1021.4 hPa | 0 mm | - | 112 W/m² | - |
| 1778079058 | 21.67° C | 76% | 1021.5 hPa | 0 mm | - | 73 W/m² | - |
| 1778078754 | 21.67° C | 75% | 1021.4 hPa | 0 mm | - | 61 W/m² | - |
| 1778078451 | 21.67° C | 75% | 1021.6 hPa | 0 mm | - | 95 W/m² | - |
| 1778078149 | 21.67° C | 75% | 1021.2 hPa | 0 mm | - | 85 W/m² | - |
| 1778077847 | 21.67° C | 75% | 1021.4 hPa | 0 mm | - | 97 W/m² | - |
| 1778077544 | 21.11° C | 76% | 1021 hPa | 0 mm | - | 100 W/m² | - |
| 1778077243 | 21.11° C | 77% | 1021.3 hPa | 0 mm | - | 63 W/m² | - |
| 1778076940 | 21.11° C | 77% | 1021 hPa | 0 mm | - | 81 W/m² | - |
| 1778076638 | 21.67° C | 77% | 1021.1 hPa | 0 mm | - | 72 W/m² | - |
| 1778076335 | 21.11° C | 78% | 1020.8 hPa | 0 mm | - | 118 W/m² | - |
| 1778076033 | 21.11° C | 77% | 1021 hPa | 0 mm | - | 95 W/m² | - |
| 1778075729 | 21.11° C | 79% | 1020.6 hPa | 0 mm | - | 80 W/m² | - |
| 1778075425 | 20.56° C | 80% | 1020.7 hPa | 0 mm | - | 76 W/m² | - |
| 1778075122 | 20.56° C | 81% | 1020.7 hPa | 0 mm | - | 80 W/m² | - |
| 1778074818 | 20° C | 81% | 1020.4 hPa | 0 mm | - | 56 W/m² | - |
| 1778074515 | 20° C | 82% | 1020.2 hPa | 0 mm | - | 49 W/m² | - |
| 1778074212 | 20° C | 82% | 1020.4 hPa | 0 mm | - | 45 W/m² | - |
* Rain latest hour (hover to see other rain measurements)
** Current wind speed in m/s (hover to see current wind gust speed)